Regional Weather Roundup
Issued by NWS Upton, NY

Current Version | Previous Version | Text Only | Print | Product List | Glossary On
Versions: 1 2 3 4 5 6 7 8 9 10 11 12 13 14 15 16 17 18 19 20 21 22 23 24 25 26 27
000
ASUS41 KOKX 220805
RWROKX

REGIONAL WEATHER ROUNDUP
NATIONAL WEATHER SERVICE NEW YORK NY
400 AM EDT TUE APR 22 2014

NOTE: "FAIR" INDICATES FEW OR NO CLOUDS BELOW 12,000 FEET WITH NO
SIGNIFICANT WEATHER AND/OR OBSTRUCTIONS TO VISIBILITY.

NYZ071-072-176-178-NJZ106-104-220900-
NEW YORK CITY METRO AREA


CITY           SKY/WX    TMP DP  RH WIND       PRES   REMARKS
CENTRAL PARK   PTCLDY    52  43  71 VRB7      29.82F
LAGUARDIA APRT MOCLDY    51  42  71 SW7       29.80F
KENNEDY INTL   MOCLDY    46  42  86 S5        29.82F
NEWARK/LIBERTY MOCLDY    49  43  80 S3        29.80F
TETERBORO      PTCLDY    50  42  74 CALM      29.79F
$$

NYZ177-179-078>081-220900-
LONG ISLAND NEW YORK

CITY           SKY/WX    TMP DP  RH WIND       PRES   REMARKS
FARMINGDALE    CLEAR     45  42  89 SW3       29.81F
ISLIP          PTCLDY    46  41  82 SW3       29.79F
SHIRLEY        PTCLDY    46  43  89 CALM      29.82F
WESTHAMPTON    PTCLDY    33  30  88 CALM      29.83F
MONTAUK POINT    N/A     41  37  86 CALM      29.83F
$$

NYZ052-065-067-220900-
HUDSON VALLEY

CITY           SKY/WX    TMP DP  RH WIND       PRES   REMARKS
WHITE PLAINS   PTCLDY    44  39  82 CALM      29.78F
NEWBURGH       CLEAR     45  39  81 CALM      29.78F
MONTGOMERY     PTCLDY    41  37  86 CALM      29.76F
POUGHKEEPSIE   MOCLDY    47  39  74 SE3       29.76F
ALBANY         CLOUDY    55  32  41 S8        29.72F
$$

NJZ001-105-106-008-010-013-015-019>022-104-220900-
NEW JERSEY

CITY           SKY/WX    TMP DP  RH WIND       PRES   REMARKS
NEWARK/LIBERTY MOCLDY    49  43  80 S3        29.80F
TETERBORO      PTCLDY    50  42  74 CALM      29.79F
CALDWELL       PTCLDY    46  41  82 CALM      29.80F
MORRISTOWN     PTCLDY    43  39  87 CALM      29.80F
SOMERVILLE     CLEAR     40  36  86 CALM      29.79F
LINDEN         FAIR      49  44  81 CALM      29.83S
SUSSEX         PTCLDY    44  34  67 SW3       29.77F
ANDOVER          N/A     47  40  76 SW3       29.78F
TRENTON        CLEAR     47  43  86 SW3       29.81S
MILLVILLE      CLEAR     38  36  92 CALM      29.83F
ATLANTIC CITY  CLEAR     42  40  92 CALM      29.83F
WRIGHTSTOWN    PTCLDY    43  41  95 S5        29.81S
TOMS RIVER     CLEAR     37  34  87 CALM      29.82F
BELMAR         CLEAR     45  37  76 SW5       29.81F
$$

PAZ047>061-062-071-220900-
EASTERN PENNSYLVANIA

CITY           SKY/WX    TMP DP  RH WIND       PRES   REMARKS
PHILADELPHIA   CLEAR     49  44  83 SW8       29.83F
ALLENTOWN      MOCLDY    44  34  67 CALM      29.79F
SCRANTON       CLOUDY    54  24  31 CALM      29.75F
$$

CTZ002-004>006-009-010-012-RIZ004-006-007-MAZ004-011-015-220900-
SOUTHERN NEW ENGLAND
 IN CT

CITY           SKY/WX    TMP DP  RH WIND       PRES   REMARKS
BRADLEY INTL   MOCLDY    45  40  82 S8        29.78F
HARTFORD       PTCLDY    46  40  79 S5        29.79F
DANBURY        MOCLDY    41  38  89 CALM      29.80F
WTRBRY/OXFORD  MOCLDY    45  37  76 SW5       29.81F
BRIDGEPORT     MOCLDY    45  41  86 CALM      29.80F
MERIDEN        PTCLDY    42  39  89 S5        29.80F
NEW HAVEN      MOCLDY    44  40  85 CALM      29.80F
CHESTER        FAIR      45  41  87 SW5       29.80F
GROTON         CLEAR     39  39 100 CALM      29.81F FOG
WILLIMANTIC    PTCLDY    40  37  89 CALM      29.81F

 IN RI

CITY           SKY/WX    TMP DP  RH WIND       PRES   REMARKS
PROVIDENCE     PTCLDY    42  39  89 S3        29.80F
BLOCK ISLAND   PTCLDY    45  39  81 SW7       29.81F
WESTERLY       PTCLDY    40  38  93 CALM      29.81F

 IN MA

CITY           SKY/WX    TMP DP  RH WIND       PRES   REMARKS
BOSTON         CLEAR     49  40  71 SW10      29.77F
WORCESTER      PTCLDY    48  39  71 SW16      29.76F
WESTFIELD      MOCLDY    46  40  79 S3        29.77F
PROVINCETOWN   CLEAR     45  43  93 MISG      29.80F
NANTUCKET      CLEAR     45  41  86 S5        29.82F
$$

ANZ330-335-338-340-345-350-353-355-220900-
COASTAL MARINE OBSERVATIONS


STATION/POSITION TIME  SKY/WX   TEMP    WIND        PRES    VSBY  WAVE
                                AIR SEA DIR/SP/G                  HT/PER
                 (UTC)          (F)     (DEG/KT/KT) (MB)    (MI)  (FT/S)
NY HARB ENTRANCE 0800            46 45  VRB  2/  4  1009.6
4S FIRE IS       0700               46                N/A           4/ 9
23SW MTP         0800            45 43  210/  6/  6 1009.3          4/ 9
HUDSON CANYON    0700            47 45  150/  2/  2 1010.4          5/ 8
EXECUTION ROCKS  0800            48 45  180/  4/  6   N/A
WESTERN LI SOUND 0800            47      CALM  /  2   N/A           0
CENTRAL LI SOUND 0800            44 42  180/  4/  4   N/A           0
EASTERN LI SOUND NOT AVBL
ROBBINS REEF     0800            49     200/  4/  5   N/A
$$


>>>>>>>>>>>>>>>>>>>>>>>>>>>> KEY <<<<<<<<<<<<<<<<<<<<<<<<<<<
>                                                          <
>     SKY/WX - SKY CONDITION/PRESENT WEATHER               <
>     TMP    - TEMPERATURE IN FAHRENHEIT                   <
>     DP     - DEWPOINT IN FAHRENHEIT                      <
>     RH     - RELATIVE HUMIDITY IN PERCENT                <
>     WIND   - DIRECTION AND SPEED IN MPH                  <
>     PRES   - MEAN SEA LEVEL PRESSURE IN INCHES OF HG     <
>     WCI    - WIND CHILL INDEX                            <
>     VSB    - VISIBILITY IN MILES                         <
>     HX     - HEAT INDEX                                  <
>     TC     - TEMPERATURE IN CELSIUS                      <
>     VRB    - VARIABLE WIND DIRECTION                     <
>                                                          <
>>>>>>>>>>>>>>>>>>>>>>>>>>>> KEY <<<<<<<<<<<<<<<<<<<<<<<<<<<





USA.gov is the U.S. government's official web portal to all federal, state and local government web resources and services.